This is the latest recevied weather packets stored in our database for station/object HK3BJ-17. If no packets are shown the sender has not sent any weather packets the latest 10 day(s).
| Time | Temp. | Humidity | Pressure | Rain* | Wind** | Luminosity | Snow |
|---|---|---|---|---|---|---|---|
| 1788026039 | 17.22° C | 68% | 1013 hPa | 0 mm | - | - | - |
| 1788025093 | 17.22° C | 72% | 1013 hPa | 0 mm | - | - | - |
| 1788024152 | 17.22° C | 77% | 1014 hPa | 0 mm | - | - | - |
| 1788023199 | 17.22° C | 82% | 1014 hPa | 0 mm | - | - | - |
| 1788022195 | 17.22° C | 85% | 1014 hPa | 0 mm | - | - | - |
| 1788021245 | 17.22° C | 85% | 1014 hPa | 0 mm | - | - | - |
| 1788020303 | 17.22° C | 85% | 1015 hPa | 0 mm | - | - | - |
| 1788019363 | 17.22° C | 85% | 1015 hPa | 0 mm | - | - | - |
| 1788018416 | 17.22° C | 85% | 1015 hPa | 0 mm | - | - | - |
| 1788017458 | 17.22° C | 85% | 1015 hPa | 0 mm | - | - | - |
| 1788016514 | 17.22° C | 85% | 1016 hPa | 0 mm | - | - | - |
| 1788015570 | 17.22° C | 85% | 1016 hPa | 0 mm | - | - | - |
| 1788014629 | 17.22° C | 85% | 1016 hPa | 0 mm | - | - | - |
| 1788013682 | 17.78° C | 85% | 1017 hPa | 0 mm | - | - | - |
| 1788012733 | 17.78° C | 85% | 1017 hPa | 0 mm | - | - | - |
| 1788011787 | 18.33° C | 85% | 1017 hPa | 0 mm | - | - | - |
| 1788010843 | 10.56° C | 85% | 1018 hPa | 0 mm | - | - | - |
| 1788009903 | 10.56° C | 87% | 1018 hPa | 0 mm | - | - | - |
| 1788008952 | 10.56° C | 90% | 1018 hPa | 0 mm | - | - | - |
| 1788008010 | 10.56° C | 94% | 1018 hPa | 0 mm | - | - | - |
| 1788007068 | 8.33° C | 96% | 1018 hPa | 0 mm | - | - | - |
| 1788006124 | 8.89° C | 97% | 1019 hPa | 0 mm | - | - | - |
| 1788005178 | 8.89° C | 97% | 1019 hPa | 0 mm | - | - | - |
| 1788004237 | 8.89° C | 97% | 1019 hPa | 0 mm | - | - | - |
| 1788003296 | 8.89° C | 96% | 1019 hPa | 0 mm | - | - | - |
* Rain latest hour (hover to see other rain measurements)
** Current wind speed in m/s (hover to see current wind gust speed)